• In Romania
  • List of Countries
  • For 7 days
  • Water Temperature
  • Satellite Maps
  • Weather Map
  • Weather Widgets
  • user-avatar
    Login

    Hourly Weather Berat

    Today, 27 July, Thursday

    Time Temperature Precipitation Wind Pressure Humidity
    00:00 +20°C° 0 mm 1 mps 738 mmHg 82%
    01:00 +20°C° 0 mm 1 mps 738 mmHg 85%
    02:00 +19°C° 0 mm 1 mps 738 mmHg 85%
    03:00 +19°C° 0 mm 1 mps 738 mmHg 86%
    04:00 +19°C° 0 mm 1 mps 738 mmHg 87%
    05:00 +20°C° 0 mm 1 mps 738 mmHg 81%
    06:00 +22°C° 0 mm 1 mps 738 mmHg 74%
    07:00 +24°C° 0 mm 2 mps 738 mmHg 65%
    08:00 +25°C° 0 mm 2 mps 738 mmHg 58%
    09:00 +27°C° 0 mm 3 mps 738 mmHg 50%
    10:00 +28°C° 0 mm 4 mps 739 mmHg 43%
    11:00 +29°C° 0.1 mm 5 mps 739 mmHg 42%
    12:00 +29°C° 0.1 mm 5 mps 739 mmHg 41%
    13:00 +30°C° 0 mm 6 mps 739 mmHg 40%
    14:00 +29°C° 0 mm 6 mps 739 mmHg 41%
    15:00 +29°C° 0 mm 6 mps 739 mmHg 42%
    16:00 +29°C° 0 mm 6 mps 739 mmHg 42%
    17:00 +27°C° 0 mm 5 mps 739 mmHg 49%
    18:00 +25°C° 0 mm 4 mps 739 mmHg 56%
    19:00 +23°C° 0 mm 2 mps 740 mmHg 62%
    20:00 +21°C° 0 mm 2 mps 740 mmHg 66%
    21:00 +20°C° 0 mm 2 mps 740 mmHg 70%
    22:00 +20°C° 0 mm 1 mps 741 mmHg 74%
    23:00 +20°C° 0 mm 1 mps 741 mmHg 74%

    Tomorrow, 28 July, Friday

    Time Temperature Precipitation Wind Pressure Humidity
    00:00 +20°C° 0 mm 1 mps 741 mmHg 74%
    01:00 +20°C° 0 mm 1 mps 741 mmHg 74%
    02:00 +19°C° 0 mm 1 mps 741 mmHg 73%
    03:00 +19°C° 0 mm 1 mps 741 mmHg 73%
    04:00 +19°C° 0 mm 1 mps 742 mmHg 73%
    05:00 +21°C° 0 mm 1 mps 742 mmHg 68%
    06:00 +23°C° 0 mm 2 mps 742 mmHg 64%
    07:00 +25°C° 0 mm 2 mps 742 mmHg 60%
    08:00 +26°C° 0 mm 2 mps 742 mmHg 53%
    09:00 +28°C° 0 mm 3 mps 743 mmHg 46%
    10:00 +29°C° 0 mm 4 mps 743 mmHg 39%
    11:00 +30°C° 0 mm 4 mps 743 mmHg 37%
    12:00 +32°C° 0 mm 4 mps 743 mmHg 35%
    13:00 +33°C° 0 mm 5 mps 743 mmHg 33%
    14:00 +33°C° 0 mm 5 mps 743 mmHg 33%
    15:00 +32°C° 0 mm 4 mps 743 mmHg 34%
    16:00 +32°C° 0 mm 4 mps 743 mmHg 35%
    17:00 +29°C° 0 mm 3 mps 743 mmHg 41%
    18:00 +27°C° 0 mm 3 mps 743 mmHg 47%
    19:00 +24°C° 0 mm 2 mps 743 mmHg 53%
    20:00 +24°C° 0 mm 1 mps 744 mmHg 54%
    21:00 +23°C° 0 mm 1 mps 744 mmHg 56%
    22:00 +22°C° 0 mm 1 mps 745 mmHg 57%
    23:00 +22°C° 0 mm 1 mps 745 mmHg 57%

    Day after tomorrow, 29 July, Saturday

    Time Temperature Precipitation Wind Pressure Humidity
    00:00 +22°C° 0 mm 1 mps 745 mmHg 57%
    01:00 +22°C° 0 mm 1 mps 745 mmHg 57%
    02:00 +22°C° 0 mm 1 mps 745 mmHg 58%
    03:00 +22°C° 0 mm 1 mps 745 mmHg 58%
    04:00 +21°C° 0 mm 2 mps 746 mmHg 59%
    05:00 +24°C° 0 mm 1 mps 746 mmHg 55%
    06:00 +26°C° 0 mm 1 mps 746 mmHg 51%
    07:00 +28°C° 0 mm 1 mps 746 mmHg 47%
    08:00 +30°C° 0 mm 1 mps 747 mmHg 42%
    09:00 +32°C° 0 mm 1 mps 747 mmHg 37%
    10:00 +34°C° 0 mm 1 mps 747 mmHg 32%
    11:00 +36°C° 0 mm 2 mps 747 mmHg 31%
    12:00 +37°C° 0 mm 2 mps 746 mmHg 29%
    13:00 +37°C° 0 mm 3 mps 746 mmHg 28%
    14:00 +37°C° 0 mm 3 mps 746 mmHg 30%
    15:00 +36°C° 0 mm 3 mps 746 mmHg 31%
    16:00 +36°C° 0 mm 3 mps 745 mmHg 33%
    17:00 +34°C° 0 mm 3 mps 746 mmHg 39%
    18:00 +30°C° 0 mm 2 mps 746 mmHg 46%
    19:00 +28°C° 0 mm 1 mps 746 mmHg 53%
    20:00 +27°C° 0 mm 1 mps 746 mmHg 55%
    21:00 +26°C° 0 mm 1 mps 746 mmHg 57%
    22:00 +26°C° 0 mm 1 mps 747 mmHg 59%
    23:00 +26°C° 0 mm 1 mps 747 mmHg 59%

    30 July, Sunday

    Time Temperature Precipitation Wind Pressure Humidity
    00:00 +25°C° 0 mm 1 mps 747 mmHg 59%
    01:00 +25°C° 0 mm 1 mps 747 mmHg 59%
    02:00 +25°C° 0 mm 1 mps 746 mmHg 59%
    03:00 +25°C° 0 mm 1 mps 746 mmHg 59%
    04:00 +25°C° 0 mm 1 mps 746 mmHg 60%
    05:00 +26°C° 0 mm 1 mps 746 mmHg 55%
    06:00 +28°C° 0 mm 1 mps 746 mmHg 51%
    07:00 +30°C° 0 mm 1 mps 747 mmHg 46%
    08:00 +32°C° 0 mm 1 mps 747 mmHg 41%
    09:00 +34°C° 0 mm 1 mps 746 mmHg 36%
    10:00 +36°C° 0 mm 1 mps 746 mmHg 31%
    11:00 +38°C° 0 mm 2 mps 746 mmHg 30%
    12:00 +38°C° 0 mm 3 mps 746 mmHg 29%
    13:00 +39°C° 0 mm 3 mps 746 mmHg 28%
    14:00 +38°C° 0 mm 3 mps 745 mmHg 30%
    15:00 +37°C° 0 mm 3 mps 745 mmHg 33%
    16:00 +37°C° 0 mm 3 mps 745 mmHg 35%
    17:00 +34°C° 0 mm 3 mps 745 mmHg 40%
    18:00 +31°C° 0 mm 2 mps 745 mmHg 45%
    19:00 +29°C° 0 mm 1 mps 745 mmHg 49%
    20:00 +28°C° 0 mm 1 mps 745 mmHg 51%
    21:00 +28°C° 0 mm 1 mps 745 mmHg 53%
    22:00 +27°C° 0 mm 1 mps 746 mmHg 55%
    23:00 +27°C° 0 mm 1 mps 746 mmHg 56%

    31 July, Monday

    Time Temperature Precipitation Wind Pressure Humidity
    00:00 +26°C° 0 mm 1 mps 745 mmHg 56%
    01:00 +26°C° 0 mm 1 mps 745 mmHg 57%
    02:00 +26°C° 0 mm 1 mps 745 mmHg 58%
    03:00 +26°C° 0 mm 1 mps 745 mmHg 58%
    04:00 +25°C° 0 mm 1 mps 745 mmHg 59%
    05:00 +27°C° 0 mm 1 mps 745 mmHg 55%
    06:00 +29°C° 0 mm 1 mps 745 mmHg 51%
    07:00 +31°C° 0 mm 1 mps 745 mmHg 47%
    08:00 +32°C° 0 mm 2 mps 745 mmHg 43%
    09:00 +35°C° 0 mm 2 mps 745 mmHg 39%
    10:00 +37°C° 0 mm 2 mps 745 mmHg 34%
    11:00 +38°C° 0 mm 3 mps 745 mmHg 33%
    12:00 +38°C° 0 mm 3 mps 745 mmHg 32%
    13:00 +40°C° 0 mm 4 mps 744 mmHg 30%
    14:00 +38°C° 0.1 mm 4 mps 744 mmHg 32%
    15:00 +37°C° 0.1 mm 4 mps 744 mmHg 35%
    16:00 +37°C° 0.1 mm 4 mps 744 mmHg 37%
    17:00 +35°C° 0.1 mm 3 mps 744 mmHg 42%
    18:00 +32°C° 0.1 mm 2 mps 744 mmHg 47%
    19:00 +30°C° 0.1 mm 2 mps 744 mmHg 52%
    20:00 +29°C° 0 mm 2 mps 744 mmHg 54%
    21:00 +28°C° 0 mm 1 mps 745 mmHg 56%
    22:00 +27°C° 0 mm 1 mps 745 mmHg 58%
    23:00 +27°C° 0 mm 2 mps 745 mmHg 59%

    1 August, Tuesday

    Time Temperature Precipitation Wind Pressure Humidity
    00:00 +27°C° 0 mm 2 mps 745 mmHg 59%
    01:00 +26°C° 0 mm 2 mps 745 mmHg 59%
    02:00 +26°C° 0 mm 2 mps 745 mmHg 60%
    03:00 +26°C° 0 mm 2 mps 745 mmHg 60%
    04:00 +25°C° 0 mm 2 mps 745 mmHg 60%
    05:00 +27°C° 0 mm 2 mps 745 mmHg 56%
    06:00 +29°C° 0 mm 2 mps 745 mmHg 52%
    07:00 +30°C° 0 mm 2 mps 746 mmHg 49%
    08:00 +32°C° 0 mm 2 mps 746 mmHg 43%
    09:00 +35°C° 0 mm 2 mps 746 mmHg 37%
    10:00 +36°C° 0 mm 1 mps 746 mmHg 31%
    11:00 +38°C° 0 mm 2 mps 745 mmHg 28%
    12:00 +39°C° 0 mm 3 mps 745 mmHg 26%
    13:00 +39°C° 0 mm 3 mps 745 mmHg 24%
    14:00 +39°C° 0 mm 3 mps 745 mmHg 24%
    15:00 +39°C° 0 mm 3 mps 744 mmHg 25%
    16:00 +40°C° 0 mm 4 mps 744 mmHg 26%
    17:00 +36°C° 0 mm 3 mps 744 mmHg 32%
    18:00 +32°C° 0 mm 2 mps 745 mmHg 38%
    19:00 +30°C° 0 mm 1 mps 745 mmHg 44%
    20:00 +29°C° 0 mm 1 mps 745 mmHg 46%
    21:00 +28°C° 0 mm 1 mps 745 mmHg 47%
    22:00 +27°C° 0 mm 1 mps 746 mmHg 49%
    23:00 +27°C° 0 mm 1 mps 746 mmHg 48%
    Show more